{"data":{"norad_id":63599,"intl_designator":"2025-078A","name":"SHIYAN-27 OBJECT A","alt_names":[],"object_type":"PAYLOAD","status":"ACTIVE","operator":null,"country":"PRC","launch_date":"2025-04-18","launch_site_code":"TAISC","launch_vehicle":null,"mission":null,"orbit_class":"UNKNOWN","rcs_meters":null,"size_class":null,"mass_kg":null,"dimensions":null,"purposes":[],"wikipedia_slug":null,"has_3d_model":false,"image_url":null,"decayed_at":null,"tle_current":{"epoch":"2026-09-21T23:05:19.602816Z","epoch_age_seconds":81322,"freshness":"FRESH","line1":"1 63599U 25078A   26264.96203244 -.00000002  00000+0  58692-4 0  9990","line2":"2 63599  99.6943 270.7494 0001051 104.1907 255.9348 13.57250648 70662","mean_motion":13.57250648,"eccentricity":0.0001051,"inclination_deg":99.6943,"raan_deg":270.7494,"arg_perigee_deg":104.1907,"mean_anomaly_deg":255.9348,"bstar":5.8692e-5,"rev_number":7066,"period_min":106.09683643341,"perigee_km":1044.92046789,"apogee_km":1046.4809585773,"semimajor_km":7423.8377132336,"source":"CELESTRAK","updated_at":"2026-09-22T09:00:29.237717Z"}}}